[[{"header":{"parameterUnit":"m.s-1","parameterCategory":1,"la1":30.2991,"la2":30.254,"lo1":-89.0895,"lo2":-89.0444,"dy":0.0017,"dx":0.0017,"nx":28,"ny":28,"refTime":"2024-02-21T09:00:00:Z","depth":0,"parameterNumber":2,"parameterNumberName":"U-component_of_WINDS"},"data":[0,0,0,0,0,0,0,0,0,0,0,0,0,0,0,0,0,0,0,0,0,0,0,0,0,0,0,0,0,0,0,0,0,0,0,0,0,0,0,0,0,0,0,0,0,0,0,0,0,0,0,0,0,0,0,0,0,0,-0.1585,-0.1584,0,-0.1526,-0.1525,-0.1524,-0.1498,-0.1498,-0.1498,-0.1498,-0.1438,-0.1436,-0.1435,0,0,0,0,0,0,0,0,0,0,0,0,0,-0.1674,-0.1673,-0.1585,-0.1584,-0.1583,-0.1526,-0.1525,-0.1524,-0.1498,-0.1498,-0.1498,-0.1498,-0.1439,-0.1437,-0.1435,0,0,0,0,0,0,0,0,0,0,0,0,0,-0.1628,-0.1672,-0.1585,-0.1563,-0.1561,-0.1526,-0.1525,-0.1524,-0.1498,-0.1498,-0.1498,-0.1498,-0.1439,-0.1437,-0.1434,-0.1417,0,0,-0.1427,-0.1426,0,0,0,0,0,0,0,0,-0.163,-0.1624,-0.1567,-0.1565,-0.1562,-0.1519,-0.1535,-0.1488,-0.1498,-0.1522,-0.1498,-0.1498,-0.1465,-0.146,-0.1449,-0.1414,-0.1411,-0.1427,-0.1425,-0.1424,-0.1423,0,0,0,0,0,0,0,-0.1634,-0.1627,-0.1561,-0.1566,-0.1563,-0.1556,-0.155,-0.1526,-0.1494,-0.152,-0.1518,-0.1511,-0.1464,-0.1452,-0.1448,-0.1411,-0.1427,-0.1424,-0.1423,-0.1422,-0.1357,-0.1357,0,0,0,0,0,0,-0.164,-0.163,-0.1563,-0.156,-0.1597,-0.1555,-0.1547,-0.1533,-0.1494,-0.1488,-0.1511,-0.151,-0.1456,-0.1451,-0.1445,-0.1422,-0.1424,-0.1422,-0.142,-0.1357,-0.1357,-0.1357,0,0,0,0,0,0,-0.1642,-0.1635,-0.1566,-0.1594,-0.1585,-0.1553,-0.1537,-0.1532,-0.152,-0.1487,-0.1481,-0.1505,-0.1456,-0.1449,-0.1424,-0.1419,-0.142,-0.1418,-0.1358,-0.1357,-0.1357,-0.1375,0,0,0,0,0,0,-0.1645,-0.1636,-0.1629,-0.1594,-0.1583,-0.1545,-0.1537,-0.153,-0.1515,-0.1514,-0.148,-0.1474,-0.1455,-0.1428,-0.1421,-0.1416,-0.1416,-0.1358,-0.1358,-0.1357,-0.1374,-0.1375,-0.1375,0,0,0,0,0,-0.1648,-0.1636,-0.1628,-0.1621,-0.1574,-0.1545,-0.1539,-0.1518,-0.1515,-0.1508,-0.1487,-0.1475,-0.1421,-0.1426,-0.1418,-0.1412,-0.1358,-0.1358,-0.1357,-0.1374,-0.1375,-0.1375,0,0,0,0,0,0,-0.1671,-0.1631,-0.1622,-0.1599,-0.1575,-0.1541,-0.1531,-0.1519,-0.1496,-0.1496,-0.147,-0.1462,-0.144,-0.1423,-0.1429,-0.1392,-0.1388,-0.1386,-0.1404,-0.1404,-0.1405,-0.1409,-0.1414,0,0,0,0,0,-0.1674,-0.1654,-0.162,-0.1602,-0.1591,-0.1563,-0.155,-0.1535,-0.151,-0.15,-0.1477,-0.1454,-0.1431,-0.1417,-0.1394,-0.1372,-0.1364,-0.1364,-0.1364,-0.1365,-0.1363,-0.135,-0.1349,-0.1355,-0.1355,-0.1355,0,0,-0.1678,-0.1654,-0.1643,-0.1606,-0.1586,-0.1566,-0.1555,-0.1534,-0.1519,-0.1497,-0.1472,-0.1454,-0.1426,-0.1402,-0.1391,-0.1388,-0.136,-0.1364,-0.1365,-0.1363,-0.1349,-0.1348,-0.1348,-0.1355,-0.1355,-0.1355,0,0,-0.1676,-0.1656,-0.1639,-0.1619,-0.1589,-0.1571,-0.1567,-0.1533,-0.1521,-0.1495,-0.1478,-0.146,-0.1422,-0.1402,-0.1387,-0.1377,-0.1365,-0.137,-0.1373,-0.136,-0.1359,-0.1359,-0.1354,-0.1353,-0.1369,-0.1369,-0.1369,0,-0.1686,-0.1654,-0.1631,-0.1611,-0.1595,-0.1574,-0.1556,-0.1538,-0.1503,-0.1492,-0.149,-0.1441,-0.1421,-0.1392,-0.1389,-0.1378,-0.1372,-0.1374,-0.1361,-0.136,-0.1359,-0.1355,-0.1354,-0.137,-0.1369,-0.1369,-0.1369,0,-0.1667,-0.1645,-0.1635,-0.1601,-0.1584,-0.1565,-0.1539,-0.1524,-0.1511,-0.1493,-0.1467,-0.1441,-0.1413,-0.1405,-0.1392,-0.1374,-0.1373,-0.1366,-0.1362,-0.136,-0.1355,-0.1354,-0.1371,-0.137,-0.137,-0.137,0,0,-0.1678,-0.1631,-0.1627,-0.1611,-0.1577,-0.1559,-0.1539,-0.1511,-0.1499,-0.1475,-0.1458,-0.1426,-0.1419,-0.1402,-0.1386,-0.1375,-0.1368,-0.1369,-0.1368,-0.137,-0.1345,-0.135,-0.1349,-0.136,-0.1359,-0.1359,-0.1348,0,-0.1671,-0.1634,-0.1612,-0.1584,-0.1563,-0.1543,-0.1525,-0.1502,-0.1484,-0.1464,-0.1445,-0.1422,-0.1415,-0.1405,-0.1392,-0.1371,-0.1362,-0.1372,-0.1343,-0.1342,-0.135,-0.1347,-0.1352,-0.1342,-0.1346,-0.1345,-0.1345,0,-0.1657,-0.1633,-0.1603,-0.157,-0.156,-0.1545,-0.1517,-0.1498,-0.1471,-0.1459,-0.144,-0.1425,-0.1402,-0.14,-0.1369,-0.1375,-0.1362,-0.135,-0.1349,-0.1345,-0.1343,-0.1342,-0.1339,-0.1337,-0.1342,-0.1342,-0.1343,0,-0.1668,-0.1628,-0.1604,-0.1591,-0.1552,-0.1542,-0.1525,-0.1498,-0.1483,-0.1458,-0.1448,-0.1422,-0.1407,-0.1387,-0.1365,-0.1365,-0.1335,-0.1331,-0.1324,-0.1325,-0.1319,-0.1319,-0.1313,-0.1311,-0.1311,-0.1311,-0.1311,0,-0.1662,-0.1644,-0.1608,-0.1594,-0.1573,-0.1548,-0.1528,-0.151,-0.1486,-0.1467,-0.1449,-0.1432,-0.1403,-0.1383,-0.1365,-0.1341,-0.1335,-0.1324,-0.132,-0.1326,-0.1327,-0.1317,-0.1317,-0.1311,-0.1311,-0.1311,-0.1311,0,-0.167,-0.1645,-0.1618,-0.1583,-0.1574,-0.156,-0.153,-0.1515,-0.1496,-0.1473,-0.1466,-0.1436,-0.1411,-0.1387,-0.1353,-0.1341,-0.1317,-0.1312,-0.1326,-0.1324,-0.1318,-0.1319,-0.1304,-0.1301,-0.1302,-0.1302,-0.1302,0,-0.1667,-0.1653,-0.1616,-0.1602,-0.1586,-0.1564,-0.1547,-0.1522,-0.1506,-0.1474,-0.1463,-0.1436,-0.1413,-0.1374,-0.1349,-0.1323,-0.1316,-0.1313,-0.1312,-0.1318,-0.1316,-0.1317,-0.1315,-0.1313,-0.1314,-0.1314,-0.1314,0,-0.1665,-0.1654,-0.1631,-0.1604,-0.1585,-0.1562,-0.1539,-0.1529,-0.1499,-0.1482,-0.1456,-0.1438,-0.1403,-0.1377,-0.1348,-0.133,-0.1317,-0.1314,-0.1311,-0.1317,-0.1326,-0.132,-0.1327,-0.1314,-0.1314,-0.1314,-0.1314,-0.1314,-0.1668,-0.1654,-0.1625,-0.16,-0.158,-0.1559,-0.1543,-0.1521,-0.1499,-0.1468,-0.1455,-0.1428,-0.1401,-0.1361,-0.1344,-0.1322,-0.1319,-0.1315,-0.1314,-0.1313,-0.1314,-0.1329,-0.1317,-0.1317,-0.1317,-0.1317,-0.1317,0,-0.1664,-0.1645,-0.1622,-0.159,-0.157,-0.1559,-0.1533,-0.1517,-0.1493,-0.1469,-0.1447,-0.1416,-0.139,-0.1364,-0.1336,-0.1324,-0.1317,-0.1318,-0.1318,-0.1314,-0.1319,-0.1324,-0.1324,-0.1324,-0.1324,-0.1324,-0.1324,-0.1324,-0.166,-0.1636,-0.1621,-0.1586,-0.1566,-0.154,-0.1525,-0.1505,-0.1486,-0.1452,-0.1431,-0.1413,-0.1388,-0.1358,-0.1334,-0.1326,-0.1317,-0.1319,-0.131,-0.1314,-0.1314,-0.1314,-0.1318,-0.1317,-0.1317,-0.1307,-0.1307,-0.1307]},{"header":{"parameterUnit":"m.s-1","parameterCategory":1,"la1":30.2991,"la2":30.254,"lo1":-89.0895,"lo2":-89.0444,"dy":0.0017,"dx":0.0017,"nx":28,"ny":28,"refTime":"2024-02-21T09:00:00:Z","depth":0,"parameterNumber":3,"parameterNumberName":"V-component_of_WINDS"},"data":[0,0,0,0,0,0,0,0,0,0,0,0,0,0,0,0,0,0,0,0,0,0,0,0,0,0,0,0,0,0,0,0,0,0,0,0,0,0,0,0,0,0,0,0,0,0,0,0,0,0,0,0,0,0,0,0,0,0,4.7583,4.7583,0,4.7575,4.7575,4.7574,4.7543,4.7542,4.7541,4.754,4.7531,4.7532,4.7532,0,0,0,0,0,0,0,0,0,0,0,0,0,4.7573,4.7574,4.7584,4.7583,4.7583,4.7575,4.7575,4.7574,4.7543,4.7542,4.7541,4.754,4.7531,4.7532,4.7532,0,0,0,0,0,0,0,0,0,0,0,0,0,4.7572,4.7574,4.7584,4.7566,4.7565,4.7575,4.7575,4.7574,4.7543,4.7542,4.7541,4.754,4.7531,4.7532,4.7532,4.7558,0,0,4.7534,4.7535,0,0,0,0,0,0,0,0,4.7573,4.7573,4.7569,4.7568,4.7566,4.7559,4.7568,4.7569,4.7543,4.7551,4.754,4.7539,4.7541,4.7541,4.7542,4.7558,4.7557,4.7534,4.7535,4.7535,4.7535,0,0,0,0,0,0,0,4.7573,4.7573,4.758,4.7569,4.7567,4.7559,4.7558,4.7568,4.7552,4.755,4.7548,4.7547,4.754,4.7541,4.7541,4.7557,4.7534,4.7535,4.7535,4.7536,4.7595,4.7596,0,0,0,0,0,0,4.7575,4.7573,4.758,4.758,4.7567,4.756,4.7559,4.7562,4.7552,4.755,4.7548,4.7546,4.7541,4.7541,4.7541,4.7572,4.7535,4.7536,4.7536,4.7594,4.7595,4.7596,0,0,0,0,0,0,4.7575,4.7576,4.7581,4.7576,4.7576,4.7562,4.7565,4.7562,4.7563,4.7551,4.7548,4.7552,4.754,4.754,4.7554,4.7571,4.7536,4.7537,4.7592,4.7594,4.7596,4.7632,0,0,0,0,0,0,4.7575,4.7576,4.7586,4.7576,4.7576,4.7594,4.7566,4.7563,4.7565,4.7561,4.7554,4.7551,4.7539,4.7554,4.7555,4.7571,4.7537,4.7591,4.7593,4.7595,4.763,4.7635,4.764,0,0,0,0,0,4.7575,4.7596,4.7586,4.7587,4.7588,4.7595,4.7595,4.7581,4.7566,4.7576,4.7568,4.7551,4.7568,4.7555,4.7557,4.7573,4.759,4.7592,4.7595,4.7627,4.7634,4.764,0,0,0,0,0,0,4.7607,4.7595,4.7584,4.7603,4.76,4.759,4.7602,4.7588,4.759,4.7587,4.7568,4.7567,4.7584,4.758,4.7565,4.7598,4.7576,4.758,4.7601,4.7607,4.7612,4.7613,4.7538,0,0,0,0,0,4.7617,4.7624,4.7612,4.763,4.7629,4.7616,4.7618,4.7607,4.7604,4.7603,4.7596,4.7594,4.7599,4.7602,4.7606,4.7628,4.7627,4.7641,4.7646,4.765,4.7653,4.7666,4.7673,4.7605,4.7605,4.7605,0,0,4.7637,4.763,4.7636,4.7637,4.7633,4.7642,4.7615,4.7624,4.7631,4.7604,4.7618,4.7613,4.7609,4.7628,4.7636,4.7625,4.7671,4.7653,4.7657,4.7658,4.767,4.7676,4.7682,4.7607,4.7607,4.7606,0,0,4.7677,4.7672,4.7688,4.7685,4.7681,4.7672,4.7675,4.7667,4.7663,4.7676,4.7657,4.7664,4.7672,4.7671,4.7671,4.7712,4.7697,4.7713,4.7741,4.7754,4.7759,4.7764,4.778,4.7785,4.7716,4.7716,4.7716,0,4.7702,4.7714,4.7697,4.7708,4.771,4.7686,4.7702,4.77,4.7698,4.7699,4.7686,4.7698,4.7693,4.7712,4.7722,4.7723,4.7727,4.7715,4.7759,4.7764,4.7768,4.7783,4.7789,4.7718,4.7718,4.7718,4.7718,0,4.7745,4.7754,4.7766,4.7765,4.7767,4.7781,4.7767,4.7771,4.776,4.7752,4.7767,4.7761,4.7763,4.7767,4.7755,4.7785,4.7778,4.7763,4.7741,4.7777,4.7791,4.7796,4.7721,4.7721,4.772,4.772,0,0,4.7807,4.7796,4.7802,4.7801,4.7795,4.7801,4.7813,4.7816,4.7821,4.782,4.7831,4.7839,4.7825,4.7825,4.7814,4.7825,4.7859,4.7808,4.7808,4.7819,4.7893,4.7905,4.7912,4.7849,4.785,4.7851,4.7893,0,4.7847,4.7868,4.7854,4.7877,4.7885,4.7863,4.7874,4.7872,4.7865,4.7871,4.7863,4.787,4.785,4.785,4.786,4.7853,4.7874,4.7849,4.786,4.7861,4.7863,4.7919,4.7933,4.7973,4.7899,4.7899,4.79,0,4.7896,4.7898,4.7922,4.7916,4.7918,4.7929,4.7931,4.7936,4.7933,4.7928,4.7929,4.7914,4.7926,4.7904,4.7921,4.7905,4.7908,4.7905,4.7906,4.7908,4.7884,4.7924,4.7986,4.7993,4.7908,4.7908,4.7907,0,4.7941,4.7949,4.7965,4.7965,4.7957,4.7965,4.7962,4.7958,4.7961,4.7962,4.7964,4.7967,4.7969,4.7972,4.7959,4.7944,4.7979,4.7955,4.7975,4.7976,4.7985,4.7985,4.805,4.7984,4.7984,4.7984,4.7984,0,4.7988,4.8004,4.7985,4.7996,4.8013,4.7997,4.8015,4.8009,4.8006,4.8015,4.7996,4.8005,4.7986,4.7993,4.7983,4.8,4.8,4.7997,4.7994,4.8,4.8,4.8003,4.8,4.7986,4.7985,4.7985,4.7985,0,4.8042,4.8029,4.8046,4.8037,4.8035,4.8049,4.8041,4.8051,4.8042,4.8054,4.8056,4.8043,4.805,4.8038,4.8043,4.8036,4.806,4.8052,4.8062,4.806,4.8082,4.8081,4.8152,4.8161,4.8088,4.8089,4.809,0,4.8073,4.8086,4.8078,4.8083,4.8081,4.8089,4.8092,4.8076,4.808,4.8078,4.8088,4.8093,4.8098,4.8111,4.8102,4.8107,4.81,4.8124,4.81,4.8106,4.8102,4.8103,4.8104,4.813,4.8131,4.8131,4.8132,0,4.8132,4.8125,4.813,4.8134,4.8138,4.814,4.814,4.8145,4.8128,4.8134,4.8142,4.8145,4.8151,4.8158,4.816,4.8157,4.8143,4.8139,4.8145,4.8151,4.8157,4.8156,4.8077,4.8138,4.8138,4.8137,4.8137,4.8137,4.8176,4.8187,4.8184,4.819,4.8189,4.819,4.8199,4.8192,4.8198,4.8202,4.8191,4.8202,4.8199,4.8201,4.82,4.8208,4.8197,4.8204,4.8207,4.8209,4.8214,4.8154,4.8208,4.8208,4.8208,4.8208,4.8207,0,4.8235,4.8232,4.8238,4.824,4.8246,4.823,4.823,4.8236,4.8246,4.8244,4.8249,4.8258,4.8264,4.8256,4.8261,4.8269,4.8263,4.8272,4.8272,4.8272,4.8222,4.8218,4.8277,4.8277,4.8277,4.8277,4.8277,4.8277,4.8267,4.8284,4.8277,4.8294,4.829,4.8301,4.8302,4.8303,4.8302,4.8314,4.8319,4.8313,4.8309,4.8314,4.832,4.8317,4.8321,4.8332,4.8327,4.8282,4.8275,4.8268,4.8264,4.8332,4.8333,4.8377,4.8377,4.8377]}]]